User: anonymous   Login
Location: Kailua
(21.4020°N, 157.7390°W)
Time: 00:47:59
(UTC-10:00)
Language:

Cosmos 2297 Rocket - Orbit

View from above orbital plane
View from above orbital plane
View from above satellite
View from above satellite

Ground track
Ground track

The orbit data is extracted from the following two-line orbital elements,

1 23405U 94077B   17015.88554041 -.00000006  00000-0  21505-4 0  9994
2 23405  70.9825 175.6093 0003910 229.8706 130.2075 14.15194726143966
Epoch (UTC): 15 January 2017 21:15:10
Eccentricity: 0.0003910
inclination: 70.9825°
perigee height: 839 km
apogee height: 844 km
right ascension of ascending node: 175.6093°
argument of perigee: 229.8706°
revolutions per day: 14.15194726
mean anomaly at epoch: 130.2075°
orbit number at epoch: 14396

The dashed part of the orbit path shows where the satellite is in the earth's shadow,  

DLR